| time (UTC) | temp F | wind direction | speed MPH | gust MPH | rain 1hr in | rain 24hr in | rain mn in | humidity % | barometer mb |
| 20260508110041 | 48 | 153 | 4.0 | 9.0 | 0.00 | 0.00 | 0.00 | 45 | 1014.0 |
| 20260508104517 | 46 | 143 | 3.0 | 7.0 | 0.00 | 0.00 | 0.00 | 51 | 1013.8 |
| 20260508103016 | 44 | 148 | 2.0 | 4.0 | 0.00 | 0.00 | 0.00 | 55 | 1013.8 |
| 20260508101516 | 45 | 110 | 0.0 | 1.0 | 0.00 | 0.00 | 0.00 | 53 | 1013.9 |
| 20260508100017 | 44 | 110 | 3.0 | 4.0 | 0.00 | 0.00 | 0.00 | 55 | 1013.7 |
| 20260508094509 | 45 | 143 | 0.0 | 3.0 | 0.00 | 0.00 | 0.00 | 50 | 1013.8 |
| 20260508093008 | 45 | 148 | 2.0 | 4.0 | 0.00 | 0.00 | 0.00 | 48 | 1013.7 |
| 20260508091504 | 47 | 242 | 3.0 | 4.0 | 0.00 | 0.00 | 0.00 | 45 | 1013.6 |
| 20260508090004 | 51 | 105 | 1.0 | 5.0 | 0.00 | 0.00 | 0.00 | 36 | 1013.4 |
| 20260508084501 | 48 | 115 | 3.0 | 4.0 | 0.00 | 0.00 | 0.00 | 40 | 1013.5 |
| 20260508083057 | 50 | 136 | 2.0 | 5.0 | 0.00 | 0.00 | 0.00 | 39 | 1013.5 |
| 20260508081602 | 51 | 120 | 2.0 | 5.0 | 0.00 | 0.00 | 0.00 | 34 | 1013.6 |
| 20260508080052 | 55 | 179 | 2.0 | 8.0 | 0.00 | 0.00 | 0.00 | 30 | 1013.7 |
| 20260508074550 | 54 | 139 | 3.0 | 7.0 | 0.00 | 0.00 | 0.00 | 29 | 1013.7 |
| 20260508073053 | 53 | 135 | 3.0 | 7.0 | 0.00 | 0.00 | 0.00 | 35 | 1013.7 |
| 20260508071553 | 56 | 144 | 7.0 | 10.0 | 0.00 | 0.00 | 0.00 | 31 | 1013.6 |
| 20260508070040 | 56 | 139 | 7.0 | 9.0 | 0.00 | 0.00 | 0.00 | 33 | 1013.5 |
| 20260508064540 | 56 | 135 | 4.0 | 7.0 | 0.00 | 0.00 | 0.00 | 34 | 1013.3 |
| 20260508063038 | 54 | 160 | 6.0 | 7.0 | 0.00 | 0.00 | 0.00 | 40 | 1013.3 |
| 20260508061539 | 52 | 181 | 2.0 | 7.0 | 0.00 | 0.00 | 0.00 | 46 | 1013.2 |
| 20260508060037 | 53 | 142 | 5.0 | 7.0 | 0.00 | 0.00 | 0.00 | 46 | 1013.1 |
| 20260508054536 | 53 | 134 | 5.0 | 8.0 | 0.00 | 0.00 | 0.00 | 46 | 1013.0 |
| 20260508053058 | 52 | 143 | 5.0 | 6.0 | 0.00 | 0.00 | 0.00 | 50 | 1012.9 |
| 20260508051535 | 54 | 155 | 5.0 | 6.0 | 0.00 | 0.00 | 0.00 | 47 | 1012.7 |
| 20260508050035 | 52 | 219 | 4.0 | 7.0 | 0.00 | 0.00 | 0.00 | 56 | 1012.6 |
| 20260508044534 | 55 | 129 | 6.0 | 8.0 | 0.00 | 0.00 | 0.00 | 43 | 1012.4 |
| 20260508043033 | 56 | 147 | 5.0 | 8.0 | 0.00 | 0.00 | 0.00 | 44 | 1012.3 |
| 20260508041554 | 57 | 133 | 3.0 | 8.0 | 0.00 | 0.00 | 0.00 | 44 | 1012.3 |
| 20260508040037 | 55 | 137 | 4.0 | 8.0 | 0.00 | 0.00 | 0.00 | 46 | 1012.3 |
| 20260508034534 | 55 | 131 | 3.0 | 6.0 | 0.00 | 0.00 | 0.00 | 51 | 1012.1 |
| 20260508033031 | 57 | 139 | 1.0 | 6.0 | 0.00 | 0.00 | 0.00 | 51 | 1011.9 |
| 20260508031535 | 58 | 119 | 1.0 | 6.0 | 0.00 | 0.00 | 0.00 | 51 | 1011.9 |
| 20260508030034 | 62 | 129 | 1.0 | 2.0 | 0.00 | 0.00 | 0.00 | 44 | 1011.8 |
| 20260508024531 | 67 | 139 | 1.0 | 2.0 | 0.00 | 0.00 | 0.00 | 36 | 1011.7 |
| 20260508023030 | 68 | 139 | 1.0 | 3.0 | 0.00 | 0.00 | 0.00 | 33 | 1011.5 |
| 20260508021528 | 70 | 224 | 1.0 | 6.0 | 0.00 | 0.00 | 0.00 | 27 | 1011.5 |
| 20260508020036 | 72 | 242 | 2.0 | 5.0 | 0.00 | 0.00 | 0.00 | 23 | 1011.4 |
| 20260508014525 | 73 | 271 | 2.0 | 9.0 | 0.00 | 0.00 | 0.00 | 22 | 1011.5 |
| 20260508013024 | 74 | 233 | 5.0 | 12.0 | 0.00 | 0.00 | 0.00 | 20 | 1011.5 |
| 20260508011523 | 75 | 246 | 9.0 | 12.0 | 0.00 | 0.00 | 0.00 | 17 | 1011.6 |
| 20260508010022 | 75 | 250 | 11.0 | 16.0 | 0.00 | 0.00 | 0.00 | 16 | 1011.6 |
| 20260508004519 | 74 | 231 | 12.0 | 16.0 | 0.00 | 0.00 | 0.00 | 16 | 1011.6 |
| 20260508003019 | 74 | 243 | 9.0 | 18.0 | 0.00 | 0.00 | 0.00 | 20 | 1011.7 |
| 20260508001517 | 75 | 218 | 6.0 | 10.0 | 0.00 | 0.00 | 0.00 | 24 | 1011.8 |
| 20260508000017 | 75 | 252 | 9.0 | 17.0 | 0.00 | 0.00 | 0.00 | 21 | 1011.8 |
| 20260507234516 | 75 | 285 | 9.0 | 15.0 | 0.00 | 0.00 | 0.00 | 18 | 1011.8 |
| 20260507233028 | 74 | 234 | 5.0 | 15.0 | 0.00 | 0.00 | 0.00 | 19 | 1011.9 |
| 20260507231512 | 75 | 250 | 5.0 | 13.0 | 0.00 | 0.00 | 0.00 | 22 | 1012.0 |
| 20260507230011 | 75 | 214 | 3.0 | 13.0 | 0.00 | 0.00 | 0.00 | 25 | 1012.2 |
| 20260507224509 | 74 | 256 | 4.0 | 13.0 | 0.00 | 0.00 | 0.00 | 21 | 1012.4 |
| 20260507223007 | 74 | 268 | 9.0 | 14.0 | 0.00 | 0.00 | 0.00 | 22 | 1012.6 |
| 20260507221504 | 74 | 273 | 7.0 | 13.0 | 0.00 | 0.00 | 0.00 | 24 | 1012.7 |
| 20260507220001 | 73 | 267 | 4.0 | 12.0 | 0.00 | 0.00 | 0.00 | 24 | 1013.0 |
| 20260507214608 | 73 | 226 | 2.0 | 10.0 | 0.00 | 0.00 | 0.00 | 22 | 1013.1 |
| 20260507213105 | 73 | 259 | 4.0 | 11.0 | 0.00 | 0.00 | 0.00 | 27 | 1013.4 |
| 20260507211555 | 72 | 339 | 2.0 | 8.0 | 0.00 | 0.00 | 0.00 | 23 | 1013.5 |
| 20260507210056 | 72 | 240 | 8.0 | 12.0 | 0.00 | 0.00 | 0.00 | 29 | 1013.7 |
| 20260507204551 | 72 | 309 | 5.0 | 10.0 | 0.00 | 0.00 | 0.00 | 27 | 1014.0 |
| 20260507203048 | 71 | 243 | 5.0 | 11.0 | 0.00 | 0.00 | 0.00 | 30 | 1014.0 |
| 20260507201549 | 71 | 238 | 2.0 | 6.0 | 0.00 | 0.00 | 0.00 | 27 | 1014.2 |
| 20260507200047 | 70 | 234 | 8.0 | 12.0 | 0.00 | 0.00 | 0.00 | 29 | 1014.2 |
| 20260507194611 | 69 | 257 | 3.0 | 14.0 | 0.00 | 0.00 | 0.00 | 30 | 1014.5 |
| 20260507193043 | 69 | 281 | 7.0 | 14.0 | 0.00 | 0.00 | 0.00 | 33 | 1014.5 |
| 20260507191537 | 68 | 248 | 9.0 | 12.0 | 0.00 | 0.00 | 0.00 | 34 | 1014.5 |
| 20260507190036 | 67 | 258 | 9.0 | 15.0 | 0.00 | 0.00 | 0.00 | 36 | 1014.7 |
| 20260507184537 | 67 | 134 | 7.0 | 13.0 | 0.00 | 0.00 | 0.00 | 38 | 1014.8 |
| 20260507183042 | 67 | 263 | 9.0 | 15.0 | 0.00 | 0.00 | 0.00 | 39 | 1015.0 |
| 20260507181531 | 66 | 281 | 3.0 | 12.0 | 0.00 | 0.00 | 0.00 | 39 | 1015.0 |
| 20260507180034 | 66 | 259 | 8.0 | 13.0 | 0.00 | 0.00 | 0.00 | 44 | 1015.0 |
| 20260507174530 | 65 | 228 | 8.0 | 13.0 | 0.00 | 0.00 | 0.00 | 41 | 1015.1 |
| 20260507173038 | 64 | 253 | 3.0 | 12.0 | 0.00 | 0.00 | 0.00 | 42 | 1015.1 |
| 20260507171539 | 65 | 91 | 2.0 | 5.0 | 0.00 | 0.00 | 0.00 | 55 | 1015.0 |
| 20260507170022 | 64 | 83 | 2.0 | 5.0 | 0.00 | 0.00 | 0.00 | 53 | 1015.1 |
| 20260507164522 | 62 | 116 | 2.0 | 6.0 | 0.00 | 0.00 | 0.00 | 57 | 1015.1 |
| 20260507163019 | 61 | 68 | 1.0 | 7.0 | 0.00 | 0.00 | 0.00 | 57 | 1015.3 |
| 20260507161519 | 60 | 9 | 3.0 | 9.0 | 0.00 | 0.00 | 0.00 | 56 | 1015.4 |
| 20260507160016 | 62 | 131 | 0.0 | 2.0 | 0.00 | 0.00 | 0.00 | 55 | 1015.3 |
| 20260507154512 | 61 | 138 | 0.0 | 3.0 | 0.00 | 0.00 | 0.00 | 56 | 1015.2 |
| 20260507153009 | 59 | 154 | 0.0 | 2.0 | 0.00 | 0.00 | 0.00 | 57 | 1015.3 |
| 20260507151508 | 57 | 154 | 1.0 | 4.0 | 0.00 | 0.00 | 0.00 | 62 | 1015.4 |
| 20260507150007 | 54 | 135 | 1.0 | 3.0 | 0.00 | 0.00 | 0.00 | 71 | 1015.6 |
| 20260507144505 | 53 | 109 | 1.0 | 3.0 | 0.00 | 0.00 | 0.00 | 73 | 1015.5 |
| 20260507143010 | 51 | 238 | 1.0 | 2.0 | 0.00 | 0.00 | 0.00 | 74 | 1015.4 |
| 20260507141503 | 48 | 238 | 0.0 | 3.0 | 0.00 | 0.00 | 0.00 | 79 | 1015.5 |
| 20260507140001 | 46 | 289 | 2.0 | 6.0 | 0.00 | 0.00 | 0.00 | 79 | 1015.3 |
| 20260507134603 | 46 | 143 | 0.0 | 2.0 | 0.00 | 0.00 | 0.00 | 79 | 1015.0 |
| 20260507133101 | 47 | 143 | 1.0 | 4.0 | 0.00 | 0.00 | 0.00 | 76 | 1014.7 |
| 20260507131553 | 48 | 154 | 1.0 | 6.0 | 0.00 | 0.00 | 0.00 | 75 | 1014.7 |
| 20260507130052 | 48 | 112 | 2.0 | 6.0 | 0.00 | 0.00 | 0.00 | 75 | 1014.6 |
| 20260507124549 | 48 | 64 | 1.0 | 4.0 | 0.00 | 0.00 | 0.00 | 74 | 1014.7 |
| 20260507123048 | 51 | 76 | 0.0 | 5.0 | 0.00 | 0.00 | 0.00 | 68 | 1014.6 |
| 20260507121545 | 52 | 31 | 4.0 | 7.0 | 0.00 | 0.00 | 0.00 | 66 | 1014.5 |
| 20260507120050 | 52 | 75 | 4.0 | 9.0 | 0.00 | 0.00 | 0.00 | 66 | 1014.5 |
| 20260507114542 | 53 | 65 | 4.0 | 8.0 | 0.00 | 0.00 | 0.00 | 63 | 1014.5 |
| 20260507113045 | 52 | 58 | 4.0 | 7.0 | 0.00 | 0.00 | 0.00 | 63 | 1014.5 |
| 20260507111537 | 53 | 29 | 2.0 | 9.0 | 0.00 | 0.00 | 0.00 | 61 | 1014.5 |